カタログに戻る

STARLINK-34213

運用中通信SSO
NORAD 64148·PAYLOAD·🇺🇸 United States

打ち上げ May 27, 2025 から Vandenberg Space Force Base

Loading…

次のパス (今後24時間)

TLE

最新Source: CelesTrak SupGP

元期: Sep 14, 2026, 20:40 UTC

1 64148C 25112C   26257.86159722 -.00017370  00000+0 -53951-3 0  2578
2 64148  97.2831 305.0633 0000966  94.0561  59.9996 15.33431453    11

AllMySatでSTARLINK-34213をリアルタイム追跡

Download on the App Store